Muskegon, MI

9:17 AM EST on February 14, 2016 (GMT -0500)
Muskegon County

Weather History for KMKG - January, 2014

Change the Weather History Date:

Thursday, January 16, 2014

  Actual Average Record
Temperature  
Mean Temperature 28 °F 25 °F  
Max Temperature 33 °F 31 °F 52 °F (1990)
Min Temperature 22 °F 20 °F -11 °F (1972)
Degree Days  
Heating Degree Days 37 40  
Month to date heating degree days 676 627  
Since 1 July heating degree days 3140 3073  
Cooling Degree Days 0 0  
Month to date cooling degree days 0 0  
Year to date cooling degree days 0 0  
Moisture  
Dew Point 22 °F    
Average Humidity 77    
Maximum Humidity 85    
Minimum Humidity 68    
Precipitation  
Precipitation 0.21 in 0.07 in 0.86 in (1980)
Month to date precipitation 2.23 1.12  
Year to date precipitation 2.23 1.12  
Snow  
Snow 2.60 in 0.90 in 8.00 in (1924)
Month to date snowfall 18.4 14.4  
Since 1 July snowfall 66.5 49.5  
Snow Depth 9.00 in    
Sea Level Pressure  
Sea Level Pressure 29.59 in    
Wind  
Wind Speed 14 mph (South)    
Max Wind Speed 26 mph    
Max Gust Speed 34 mph    
Visibility 3 miles    
Events Fog , Snow    
T = Trace of Precipitation, MM = Missing Value Source: NWS Daily Summary

Daily Weather History Graph

Daily Weather History Graph

Search for Another Location

Airport or City:

Trip Planner

Search our weather history database for the weather conditions in past years. The results will help you decide how hot, cold, wet, or windy it might be!

Date:

Astronomy

Jan. 16, 2014 Rise Set
Actual Time 8:13 AM EST 5:36 PM EST
Civil Twilight 7:41 AM EST 6:07 PM EST
Nautical Twilight 7:06 AM EST 6:43 PM EST
Astronomical Twilight 6:32 AM EST 7:17 PM EST
Moon 6:30 PM EST (1/16) 8:04 AM EST (1/16)
Length of Visible Light 10h 26m
Length of Day
9h 23m
Full, 100% of the Moon is Illuminated
Jan 16
Full
Jan 24
Last Quarter
Jan 30
New
Feb 6
First Quarter
Feb 14
Full

Hourly Weather History & Observations

Time (EST) Temp. Windchill Dew Point Humidity Pressure Visibility Wind Dir Wind Speed Gust Speed Precip Events Conditions
12:55 AM 24.1 °F 9.4 °F 15.1 °F 69% 29.85 in 9.0 mi SSW 20.7 mph 32.2 mph N/A   Overcast
1:52 AM 24.8 °F 10.3 °F 17.6 °F 74% 29.79 in 2.5 mi SSW 20.7 mph 31.1 mph 0.00 in Snow Light Snow
1:55 AM 24.1 °F 8.7 °F 17.1 °F 75% 29.82 in 3.0 mi SSW 23.0 mph 29.9 mph 0.00 in Snow Light Snow
2:55 AM 24.1 °F 9.4 °F 16.0 °F 71% 29.78 in 8.0 mi SSW 20.7 mph 28.8 mph 0.00 in   Overcast
3:55 AM 23.0 °F 8.7 °F 16.0 °F 74% 29.75 in 8.0 mi South 18.4 mph 24.2 mph 0.00 in Snow Light Snow
4:55 AM 21.9 °F 7.8 °F 17.1 °F 82% 29.71 in 4.0 mi South 17.3 mph 25.3 mph 0.00 in Snow Light Snow
5:03 AM 21.9 °F 8.2 °F 17.1 °F 82% 29.67 in 2.5 mi South 16.1 mph - 0.00 in Snow Light Snow
5:26 AM 21.9 °F 9.2 °F 17.1 °F 82% 29.66 in 1.2 mi South 13.8 mph 28.8 mph 0.00 in Snow Light Snow
5:48 AM 21.9 °F 7.8 °F 17.1 °F 82% 29.65 in 0.8 mi South 17.3 mph 26.5 mph 0.01 in Snow Light Snow
5:55 AM 21.9 °F 7.8 °F 18.0 °F 85% 29.68 in 0.8 mi South 17.3 mph 28.8 mph 0.02 in Snow Light Snow
6:04 AM 21.9 °F 7.8 °F 18.0 °F 85% 29.64 in 1.2 mi South 17.3 mph 24.2 mph 0.00 in Snow Light Snow
6:22 AM 21.9 °F 8.2 °F 18.0 °F 85% 29.64 in 2.0 mi South 16.1 mph - 0.00 in Snow Light Snow
6:55 AM 21.9 °F 9.2 °F 18.0 °F 85% 29.65 in 2.0 mi South 13.8 mph 24.2 mph 0.02 in Snow Light Snow
7:03 AM 21.9 °F 7.8 °F 18.0 °F 85% 29.61 in 1.5 mi South 17.3 mph - 0.00 in Snow Light Snow
7:36 AM 23.0 °F 9.6 °F 18.0 °F 81% 29.61 in 3.0 mi South 16.1 mph 25.3 mph 0.01 in Snow Light Snow
7:55 AM 23.0 °F 9.2 °F 18.0 °F 81% 29.63 in 6.0 mi South 17.3 mph 24.2 mph 0.01 in Snow Light Snow
8:55 AM 25.0 °F 10.9 °F 19.9 °F 81% 29.62 in 5.0 mi South 19.6 mph 26.5 mph 0.00 in Snow Light Snow
9:55 AM 26.1 °F 12.0 °F 21.0 °F 81% 29.62 in 3.0 mi South 20.7 mph 29.9 mph 0.00 in Snow Light Snow
10:55 AM 27.0 °F 14.3 °F 21.9 °F 81% 29.60 in 3.0 mi South 17.3 mph 27.6 mph 0.00 in Snow Light Snow
11:55 AM 27.0 °F 15.2 °F 21.9 °F 81% 29.59 in 4.0 mi South 15.0 mph - 0.00 in Snow Light Snow
12:02 PM 27.0 °F 14.3 °F 21.9 °F 81% 29.55 in 3.0 mi South 17.3 mph 24.2 mph 0.00 in Snow Light Snow
12:55 PM 28.0 °F 16.1 °F 23.0 °F 81% 29.56 in 4.0 mi South 16.1 mph 25.3 mph 0.00 in Snow Light Snow
1:49 PM 28.4 °F 16.2 °F 24.8 °F 86% 29.51 in 2.5 mi South 17.3 mph 26.5 mph 0.00 in Snow Light Snow
1:55 PM 28.9 °F 16.9 °F 24.1 °F 82% 29.53 in 2.5 mi South 17.3 mph 24.2 mph 0.00 in Snow Light Snow
2:08 PM 28.9 °F 16.9 °F 24.1 °F 82% 29.51 in 4.0 mi South 17.3 mph - 0.00 in   Haze
2:36 PM 28.9 °F 17.7 °F 24.1 °F 82% 29.50 in 2.5 mi South 15.0 mph 25.3 mph 0.00 in Snow Light Snow
2:55 PM 28.9 °F 17.7 °F 24.1 °F 82% 29.52 in 2.0 mi SSE 15.0 mph 21.9 mph 0.00 in Snow Light Snow
3:02 PM 28.9 °F 16.9 °F 24.1 °F 82% 29.49 in 1.5 mi SSE 17.3 mph - 0.00 in Snow Light Snow
3:55 PM 28.9 °F 18.6 °F 25.0 °F 85% 29.53 in 0.2 mi SSE 12.7 mph - 0.02 in Fog , Snow Snow
4:05 PM 28.9 °F 18.6 °F 24.1 °F 82% 29.50 in 0.5 mi SSE 12.7 mph - 0.01 in Snow Snow
4:39 PM 28.0 °F 19.3 °F 24.1 °F 85% 29.50 in 0.8 mi SE 9.2 mph - 0.02 in Snow Light Snow
4:51 PM 28.4 °F 19.1 °F 24.8 °F 86% 29.51 in 1.0 mi SSE 10.4 mph - 0.02 in Snow Light Snow
4:52 PM 28.0 °F 19.3 °F 24.1 °F 85% 29.53 in 1.0 mi SSE 9.2 mph - 0.02 in Snow Light Snow
4:55 PM 28.0 °F 19.3 °F 24.1 °F 85% 29.53 in 1.0 mi SSE 9.2 mph - 0.02 in Snow Light Snow
4:59 PM 28.0 °F 19.3 °F 24.1 °F 85% 29.50 in 0.8 mi SSE 9.2 mph - 0.01 in Snow Light Snow
5:15 PM 28.9 °F 19.8 °F 24.1 °F 82% 29.50 in 1.0 mi SSE 10.4 mph - 0.01 in Snow Light Snow
5:38 PM 28.9 °F 19.8 °F 24.1 °F 82% 29.50 in 1.0 mi SSE 10.4 mph - 0.02 in Snow Light Snow
5:47 PM 28.9 °F 19.8 °F 24.1 °F 82% 29.51 in 1.0 mi SE 10.4 mph - 0.02 in Snow Light Snow
5:55 PM 28.9 °F 19.8 °F 24.1 °F 82% 29.53 in 1.0 mi SSE 10.4 mph - 0.02 in Snow Light Snow
6:19 PM 28.9 °F 19.2 °F 24.1 °F 82% 29.51 in 5.0 mi SE 11.5 mph - 0.01 in Snow Light Snow
6:55 PM 28.9 °F 19.2 °F 25.0 °F 85% 29.53 in 3.0 mi SE 11.5 mph - 0.01 in Snow Light Snow
7:04 PM 28.9 °F 19.2 °F 25.0 °F 85% 29.51 in 1.8 mi SSE 11.5 mph - 0.00 in Snow Light Snow
7:15 PM 28.9 °F 19.8 °F 25.0 °F 85% 29.51 in 1.0 mi SSE 10.4 mph - 0.01 in Snow Light Snow
7:32 PM 30.0 °F 21.1 °F 26.1 °F 85% 29.51 in 1.0 mi SSE 10.4 mph - 0.02 in Snow Light Snow
7:55 PM 30.0 °F 22.4 °F 26.1 °F 85% 29.54 in 1.0 mi SSE 8.1 mph - 0.03 in Snow Light Snow
8:55 PM 30.0 °F 21.1 °F 26.1 °F 85% 29.53 in 1.5 mi SSE 10.4 mph - 0.02 in Snow Light Snow
9:55 PM 30.9 °F 22.2 °F 27.0 °F 85% 29.54 in 1.5 mi SSE 10.4 mph - 0.03 in Snow Light Snow
10:30 PM 30.9 °F 26.2 °F 28.0 °F 89% 29.52 in 1.5 mi South 4.6 mph - 0.02 in   Overcast
10:55 PM 32.0 °F - 28.9 °F 88% 29.55 in 1.5 mi Calm Calm - 0.02 in Snow Light Snow
11:04 PM 32.0 °F 20.8 °F 28.9 °F 88% 29.53 in 3.0 mi West 17.3 mph 21.9 mph 0.00 in Snow Light Snow
11:16 PM 32.0 °F 20.5 °F 28.0 °F 85% 29.54 in 6.0 mi WNW 18.4 mph 26.5 mph 0.00 in   Overcast
11:55 PM 30.0 °F 20.5 °F 26.1 °F 85% 29.57 in 8.0 mi WNW 11.5 mph 21.9 mph 0.00 in Snow Light Snow